Retour au catalogue

LAGEOS 1 AKM

ActifMEO
NORAD 8822·ROCKET BODY·🇺🇸 United States

Lancé May 4, 1976 depuis Vandenberg Space Force Base

Loading…

Prochains Passages (prochaines 24 heures)

TLE

FraisSource: Space-Track

Époque: Sep 8, 2026, 08:49 UTC

1 08822U 76039C   26251.36743995 -.00000001  00000-0  00000-0 0  9999
2 08822 109.8181 212.5778 0045515 279.0661 238.5087  6.38871772174467

Suivez LAGEOS 1 AKM en temps réel avec AllMySat

Download on the App Store